Temperature
12 13 13 14 17 19 20 19 19 18 18 18 17 18 20 21 21 20 16 16 17 16 16 16 16 16 16 17 17 17 17 17 17 17 17 17 17 17 17 17 17 16 16 16 16 16 16 16 16
12 13 13 16 18 20 20 19 18 18 17 16 17 18 19 19 18 17 16 16 16 16 16 16 16 16 16 16 17 17 17 17 17 17 17 17 17 17 17 17 16 16 16 16 16 16 16 16 16
12 12 14 17 18 20 20 17 18 16 15 16 17 17 18 17 16 15 15 16 16 16 16 16 16 16 16 16 16 16 16 16 16 16 16 17 17 17 17 17 16 16 16 16 16 16 16 16 16
12 13 14 17 17 17 17 17 16 16 16 16 17 18 16 14 14 14 15 16 16 16 16 16 16 16 16 16 16 16 16 16 16 16 16 16 16 16 16 16 16 16 16 16 16 16 16 16 16
12 14 15 16 17 16 16 15 15 16 17 16 16 17 16 14 14 15 15 16 16 16 16 16 16 16 16 16 16 16 16 16 16 16 16 16 16 16 16 16 16 16 16 16 16 16 16 16 16
12 15 16 17 16 15 15 14 14 16 16 15 15 16 16 14 14 15 15 15 15 16 16 16 16 16 16 15 16 16 16 16 16 16 16 16 16 16 16 16 16 16 16 16 16 16 16 16 15
13 15 16 16 15 15 14 13 14 15 16 15 14 16 16 14 14 14 15 15 15 15 15 15 15 15 15 15 15 15 15 15 15 15 15 16 16 16 16 16 16 15 15 16 16 16 16 15 15
11 14 14 14 15 14 13 13 13 14 14 13 13 15 15 13 13 14 14 14 15 15 15 15 15 15 15 15 15 15 15 15 15 15 15 15 15 15 15 15 15 15 15 15 15 15 15 15 15
11 13 14 14 14 14 13 13 12 12 13 13 12 13 12 12 13 13 14 14 14 14 15 15 15 15 15 15 15 15 15 15 15 15 15 15 15 15 15 15 15 15 15 15 15 15 15 15 15
11 13 13 12 13 13 12 12 12 12 13 13 13 12 12 12 12 12 13 13 14 14 14 15 15 15 15 15 15 15 15 15 15 15 15 15 15 15 15 15 15 15 15 15 15 15 15 15 14
11 12 11 11 10 11 11 11 11 12 13 13 12 12 11 11 11 12 12 12 13 13 14 14 14 15 15 15 15 15 15 15 15 15 15 15 14 15 15 15 15 15 14 14 15 14 14 14 14
10 10 10 10 9 10 10 10 11 11 12 11 11 10 10 11 11 11 11 12 12 13 14 14 14 14 14 14 15 15 15 15 15 15 15 14 14 14 14 14 14 14 14 14 14 14 14 14 14
10 10 9 9 9 9 9 10 10 10 10 10 10 10 10 10 10 10 11 11 12 12 13 13 14 14 14 14 14 14 14 14 14 14 14 14 14 14 14 14 14 14 14 14 14 14 14 14 14
9 9 9 9 9 9 9 10 10 10 10 9 9 9 10 10 10 10 10 11 11 12 12 13 13 13 13 14 14 14 14 14 14 14 14 14 14 14 14 14 14 14 14 14 14 14 14 14 14
8 9 10 9 9 9 9 11 11 10 9 9 9 9 9 9 9 9 10 10 11 11 12 12 13 13 13 13 14 14 14 14 14 14 14 14 14 14 14 14 14 14 14 14 14 14 13 13 13
9 10 11 10 9 9 10 11 11 9 9 9 9 9 9 9 9 9 9 10 10 11 11 12 12 12 13 13 13 13 13 13 13 13 13 13 13 14 14 14 14 14 14 13 13 13 13 13 13
9 10 10 10 9 9 9 10 11 9 9 9 9 9 9 9 8 8 8 9 9 10 10 11 11 12 12 12 12 13 13 13 13 13 13 13 13 13 13 13 13 13 13 13 13 13 13 13 13
9 10 9 10 9 9 9 10 10 9 9 9 9 8 8 8 8 8 8 8 9 9 10 10 11 11 11 11 12 12 12 12 12 12 12 13 13 13 13 13 13 13 13 13 13 13 13 13 13
9 9 9 9 9 9 9 10 10 10 9 9 8 8 8 7 7 7 7 8 8 9 9 9 10 10 11 11 11 11 11 12 12 12 12 12 12 12 12 12 12 12 12 13 13 12 12 12 12
8 8 9 9 9 9 9 9 10 9 9 8 8 7 7 7 7 7 7 7 7 8 8 9 9 10 10 10 10 10 11 11 11 12 12 12 12 12 12 12 12 12 12 12 12 12 12 12 12
8 8 8 8 9 9 9 10 10 10 9 8 7 7 6 6 6 6 6 6 7 7 8 8 9 9 9 9 9 10 10 10 11 11 11 11 11 12 12 12 12 12 12 12 12 12 12 11 11
8 8 8 8 8 9 9 10 11 10 10 9 8 7 6 5 5 5 5 5 6 6 7 7 8 8 9 9 9 9 9 9 10 10 10 11 11 11 11 11 11 11 11 11 12 12 12 11 11
8 8 7 8 8 8 9 9 10 10 9 9 8 6 5 5 4 4 4 5 5 6 6 7 7 7 8 8 8 8 8 9 9 9 10 10 10 10 11 11 11 11 11 11 11 11 11 11 11
7 7 7 8 8 8 9 9 10 9 8 8 7 6 5 4 4 4 4 4 5 5 6 6 7 7 7 8 8 8 8 8 8 9 9 9 9 10 10 10 10 10 10 11 11 11 11 11 11
7 8 9 9 9 10 9 8 9 9 8 7 6 5 4 4 3 4 4 4 4 5 5 6 6 6 7 7 7 8 8 8 8 8 8 8 9 9 10 10 10 10 10 10 10 10 10 10 10
8 8 9 10 10 10 8 9 10 8 7 6 5 5 4 4 3 3 3 3 4 4 4 5 5 6 6 6 7 7 7 7 7 8 8 8 8 8 9 9 9 9 9 9 10 10 10 10 10
8 8 8 8 8 9 10 9 9 8 7 6 6 5 4 4 3 3 3 3 3 3 4 4 5 5 5 6 6 6 7 7 7 7 7 7 7 8 8 8 8 9 9 9 9 9 9 9 9
8 8 7 8 9 10 10 10 10 8 8 7 6 5 4 3 3 3 3 3 3 3 4 4 4 4 5 5 5 6 6 6 6 7 7 7 7 7 7 7 7 8 8 8 8 8 8 9 9
7 7 7 8 8 9 10 11 9 8 8 7 6 5 4 3 3 3 3 3 3 3 3 4 4 4 4 4 5 5 5 5 6 6 6 6 6 6 6 6 7 7 7 7 7 7 8 8 8
8 8 8 8 8 8 9 10 8 8 7 6 6 5 4 3 3 3 3 3 3 3 3 3 3 3 3 3 4 4 4 4 4 5 5 5 5 5 5 6 6 6 6 6 6 7 7 7 7
Wind_Speed
2 1 2 4 5 5 7 5 4 5 4 2 2 4 4 3 2 1 5 9 10 5 4 11 14 15 14 14 14 14 14 14 15 16 16 16 15 15 14 14 14 14 14 14 15 15 14 14 14
1 1 4 4 6 7 6 5 7 5 1 1 3 4 4 3 2 5 6 11 9 4 3 9 14 15 14 14 14 14 14 14 15 15 16 15 15 15 14 14 14 14 14 15 15 15 14 14 14
2 1 5 5 6 6 3 3 4 3 1 1 1 2 2 1 4 6 10 11 8 3 2 6 11 14 14 14 14 14 14 14 14 14 15 15 15 15 15 14 14 14 14 15 15 15 14 14 13
3 4 3 6 8 4 1 3 2 3 3 1 1 2 1 2 5 7 11 10 7 4 1 4 8 11 14 14 14 14 14 14 14 14 15 15 15 15 15 15 14 14 15 15 15 15 14 14 13
2 4 6 6 7 3 3 1 1 3 2 1 2 3 1 2 6 9 11 10 7 5 3 1 4 8 12 14 14 14 14 15 15 15 15 15 15 15 15 15 15 15 16 15 16 15 15 14 13
4 4 6 8 7 4 3 3 3 4 3 2 3 4 1 2 8 11 11 10 8 6 4 2 2 5 9 12 14 14 15 15 15 15 15 16 16 16 16 16 16 16 16 16 16 16 15 14 13
5 5 5 5 5 5 3 2 4 4 4 2 3 4 2 2 9 11 11 10 8 7 5 4 4 5 7 10 12 14 15 15 15 15 15 16 16 16 16 17 17 17 17 17 17 17 15 14 13
2 3 4 4 5 4 2 1 1 3 4 2 3 4 3 6 11 11 10 10 9 7 6 5 5 5 6 8 11 13 14 15 15 15 15 16 16 17 17 18 18 18 18 18 17 17 16 14 13
2 4 5 4 4 3 2 1 1 3 4 4 4 5 7 11 12 12 10 10 9 9 7 6 6 5 6 7 8 10 12 14 15 15 15 15 15 16 16 18 19 19 19 18 18 17 16 14 13
4 5 3 2 1 1 0 2 3 3 6 6 6 7 9 11 12 12 12 11 11 11 10 8 7 6 6 6 7 8 10 11 13 13 14 15 14 13 14 16 19 19 19 19 18 17 16 14 12
4 3 3 2 1 1 2 3 3 5 6 7 10 12 12 13 12 12 12 12 11 11 10 9 8 8 7 5 6 6 7 8 11 13 14 14 13 12 12 12 15 17 18 16 16 16 15 14 11
4 3 2 2 0 2 4 4 5 7 8 10 12 13 13 14 13 13 13 13 12 12 11 10 9 8 8 7 6 7 6 7 8 11 14 12 9 9 10 9 12 14 14 14 14 13 15 14 13
4 3 2 2 3 5 5 7 7 9 11 11 11 12 12 13 13 13 13 13 12 12 12 11 9 9 8 7 7 7 7 7 8 9 12 13 9 9 9 9 11 13 13 13 12 12 13 13 13
4 3 2 2 2 2 5 6 5 7 8 9 10 11 11 11 12 12 12 12 12 11 11 10 10 9 9 8 8 7 8 8 8 9 11 13 11 9 10 9 10 11 12 13 12 13 11 11 10
3 2 2 1 1 1 4 5 4 6 9 10 10 10 11 11 11 11 12 12 12 12 11 11 10 9 10 10 10 8 8 8 8 8 11 13 12 11 10 9 10 10 12 13 12 13 11 10 10
3 3 2 2 1 1 4 5 2 6 9 10 10 10 10 10 10 10 11 11 11 11 11 11 9 9 9 9 8 7 8 9 8 9 10 12 13 13 10 9 9 10 11 10 10 10 11 11 10
3 2 1 1 1 1 3 5 6 8 8 9 9 9 10 10 11 11 10 10 10 10 11 10 9 9 9 9 7 7 7 8 8 8 9 10 13 13 11 10 9 11 9 9 10 10 10 11 11
4 3 2 1 1 3 5 7 8 8 7 8 9 9 10 11 12 12 11 10 10 10 9 9 9 8 8 7 6 6 7 7 7 8 9 10 10 12 11 10 11 11 10 10 11 12 11 10 10
4 3 1 2 2 4 5 8 8 6 6 7 9 10 11 12 12 12 12 11 10 9 9 8 8 7 6 5 6 6 7 6 6 7 9 9 9 10 10 9 11 11 11 12 13 11 12 11 9
3 2 1 1 2 3 6 7 4 3 4 7 9 10 11 13 13 13 13 11 10 10 9 8 7 7 6 6 6 6 6 5 6 5 7 8 9 9 8 10 10 10 10 12 13 11 10 8 9
3 2 1 2 5 2 5 3 1 2 4 7 9 10 11 12 13 13 13 12 11 10 9 7 7 6 6 6 5 4 4 4 5 5 6 8 8 9 9 10 10 10 10 10 12 13 13 10 11
1 1 2 4 4 1 3 2 1 2 4 8 10 11 12 13 12 12 13 13 12 11 9 8 7 5 5 4 4 5 4 5 6 5 5 6 7 8 8 9 10 10 10 10 11 12 11 11 11
0 1 3 3 3 3 2 3 1 2 5 8 10 11 12 12 12 12 12 12 12 11 10 8 8 6 5 3 2 3 4 4 4 4 5 5 6 6 6 7 8 8 8 10 10 11 11 10 10
1 1 1 2 2 2 2 3 2 2 5 7 8 10 11 11 11 11 12 12 11 11 10 9 9 8 6 3 2 2 3 3 3 3 3 4 4 4 5 6 7 7 7 8 8 10 12 11 10
2 2 1 2 2 1 1 3 3 2 3 4 6 8 9 10 11 11 13 12 12 12 11 10 10 9 8 5 3 3 2 2 3 4 4 4 3 4 4 5 6 6 7 8 8 9 10 11 11
1 2 2 2 1 1 2 3 1 1 2 3 4 6 7 8 9 10 11 11 11 11 11 11 10 9 9 7 5 4 3 2 2 3 4 4 4 4 5 5 5 6 6 6 7 7 9 9 11
1 1 1 2 2 3 2 2 2 1 1 2 4 5 7 7 8 8 9 10 10 11 11 10 10 10 10 9 7 6 5 4 4 4 4 4 4 5 5 5 5 5 4 5 6 6 8 9 10
1 1 2 2 2 2 2 3 2 3 3 2 3 5 5 6 7 7 8 9 9 9 9 10 10 10 10 10 9 7 7 6 6 5 5 5 5 5 5 5 5 5 5 5 5 5 6 8 9
3 2 2 2 2 3 2 1 1 3 2 3 3 3 4 5 6 6 6 7 8 8 9 10 10 10 10 10 10 10 9 8 7 6 7 7 7 7 6 5 5 5 5 5 5 6 6 8 8
3 3 3 2 2 3 3 2 2 2 2 2 3 2 2 3 4 5 6 6 7 8 9 9 9 10 10 9 9 9 9 8 8 8 8 8 7 7 7 6 6 6 6 6 6 7 7 8 9
Wind_Direction
354 334 192 179 188 214 223 203 196 172 180 191 247 250 244 239 256 29 14 359 341 318 211 180 180 175 172 170 167 165 166 166 166 167 167 168 168 168 167 165 162 159 157 154 148 143 139 133 128
35 179 175 188 214 217 212 198 195 176 116 298 244 239 232 230 346 350 357 345 335 323 210 188 177 178 176 175 173 172 172 173 173 173 173 173 173 174 173 171 167 161 160 155 148 144 140 137 133
130 150 180 188 214 227 185 159 184 176 225 258 209 220 252 316 348 348 349 336 335 338 220 187 179 183 181 180 179 179 179 180 181 180 178 178 179 180 178 175 171 164 161 156 150 146 144 143 141
168 158 182 213 215 217 163 116 137 184 179 205 247 209 163 33 350 341 339 342 344 349 287 194 187 190 188 186 186 187 186 187 188 187 184 184 184 184 182 180 174 167 162 158 155 151 150 149 148
166 177 189 210 216 203 206 203 226 207 194 211 265 248 209 44 2 350 347 350 348 344 328 226 195 202 197 195 195 195 194 193 193 193 192 191 189 188 185 181 175 169 166 163 161 159 157 156 155
163 190 204 213 204 201 209 227 238 239 234 259 277 259 225 54 6 354 350 349 346 337 326 299 211 215 210 206 205 203 203 201 201 199 197 196 193 191 188 182 177 174 173 170 168 165 164 163 163
188 193 211 206 198 197 186 216 235 250 247 274 293 256 217 27 359 346 345 345 344 338 325 310 269 232 217 214 212 212 210 209 209 207 203 201 197 195 190 184 181 179 178 176 174 171 169 169 169
194 187 193 201 201 189 147 177 280 276 272 311 279 255 260 337 339 336 338 340 339 334 327 315 296 270 246 228 218 219 218 216 215 213 209 208 203 198 193 188 185 182 182 180 178 177 174 174 173
191 207 207 196 195 167 139 209 305 297 270 271 264 277 303 319 324 328 330 331 332 332 328 316 304 290 270 250 226 220 222 222 220 218 214 213 213 208 200 198 188 185 184 183 182 181 178 175 175
190 212 204 167 171 155 199 293 312 280 268 269 270 282 301 312 318 321 319 318 318 319 320 317 305 291 280 262 241 229 226 223 223 224 218 217 217 214 209 196 188 188 186 185 186 182 179 185 187
178 200 158 159 171 267 278 294 290 274 274 285 296 303 310 310 308 307 305 304 304 305 305 307 303 292 280 267 254 240 231 227 225 225 222 219 218 215 209 198 192 194 190 193 190 189 195 199 197
156 157 171 174 200 270 281 287 283 263 275 300 300 300 301 301 301 300 299 300 299 297 295 297 297 289 280 270 259 249 240 233 230 226 223 220 217 215 210 204 199 199 198 198 196 200 201 203 203
158 154 169 243 266 273 271 266 276 274 288 295 296 295 296 296 296 295 294 293 292 290 290 291 289 284 276 268 260 252 246 242 238 232 226 219 216 215 213 209 205 205 201 198 200 204 202 203 205
153 167 218 270 262 259 271 272 269 283 307 307 305 302 301 300 299 298 297 294 291 289 289 289 284 280 272 263 256 254 248 244 243 235 228 222 219 215 212 213 210 210 206 203 203 204 205 206 206
149 165 162 140 247 264 282 269 251 303 316 312 312 311 310 308 305 300 299 296 292 290 290 288 284 279 271 263 257 252 247 242 239 235 232 227 221 217 213 212 211 211 210 207 207 207 207 207 207
157 181 174 93 348 289 276 276 345 336 323 319 321 321 319 318 314 309 305 299 295 291 289 288 284 278 271 264 260 255 248 242 240 238 236 232 226 221 218 214 212 208 207 206 208 206 205 207 209
149 170 188 126 41 309 270 280 322 332 325 324 328 328 327 326 326 324 315 307 301 294 288 285 282 276 271 265 260 256 252 245 244 242 239 234 230 224 221 219 214 207 206 206 207 208 208 209 211
154 159 197 245 0 305 278 285 310 326 330 329 333 334 333 332 332 330 324 315 308 302 292 284 281 275 269 263 259 255 250 246 244 244 239 237 233 228 224 224 219 208 207 208 209 209 208 213 210
134 159 219 270 306 300 288 297 314 331 345 345 343 339 337 335 335 336 334 328 319 312 303 290 283 274 264 255 250 246 245 244 242 242 240 237 235 231 227 225 220 214 211 211 210 210 210 212 204
153 173 250 288 305 293 297 298 312 351 1 357 351 346 343 340 341 342 340 337 330 322 315 305 291 278 261 250 247 249 251 248 246 248 246 241 238 232 227 225 222 218 215 215 213 210 211 208 199
184 209 254 307 320 270 290 261 153 40 13 9 4 357 352 348 344 345 345 342 338 334 328 320 308 291 275 260 248 248 248 253 249 247 247 244 241 237 232 231 226 220 217 215 211 210 211 209 206
188 206 255 285 298 301 315 270 203 338 352 5 2 358 353 351 349 348 348 347 345 343 341 337 330 320 307 281 252 238 238 242 248 251 250 252 252 248 243 239 233 227 223 220 215 211 213 214 213
250 302 264 265 270 274 244 258 253 340 334 349 354 354 353 354 355 353 351 349 350 351 350 348 348 347 341 323 284 253 253 255 262 264 260 259 258 255 255 249 242 235 231 228 223 218 215 214 218
229 238 209 210 234 245 220 244 273 335 325 331 344 350 353 356 356 355 355 356 359 360 360 359 360 358 353 350 328 283 270 273 275 283 282 273 270 269 268 261 249 243 239 234 229 225 222 220 220
220 251 220 207 217 235 153 244 271 331 329 329 336 344 351 357 358 360 1 2 3 2 2 4 8 3 1 0 349 319 293 279 268 268 266 268 276 284 287 277 262 253 249 242 236 229 227 225 223
199 283 312 297 293 303 208 248 275 29 353 354 343 341 350 357 360 1 3 3 4 3 4 6 11 9 7 6 4 3 347 316 291 285 282 282 285 284 288 283 275 268 260 253 245 237 233 231 229
193 207 328 290 283 267 240 246 221 185 305 332 337 343 354 356 357 359 1 4 6 6 7 8 11 12 11 12 13 13 11 7 348 330 312 303 301 299 295 287 283 284 281 270 257 249 245 239 235
253 200 209 241 274 277 258 245 247 229 267 292 320 338 350 354 356 358 359 0 3 6 6 11 15 16 14 15 15 12 10 7 359 353 348 337 327 319 308 300 294 292 285 282 272 265 262 253 245
178 195 218 234 274 282 285 256 146 222 256 278 303 323 337 343 349 353 355 358 0 5 10 13 13 15 15 14 12 12 10 7 4 359 356 353 347 342 334 319 307 300 295 291 282 272 267 261 258
233 231 217 251 241 249 274 275 115 214 252 263 275 290 309 321 336 343 352 0 6 8 10 12 12 14 11 9 9 10 9 9 8 3 357 352 347 344 341 337 327 315 305 297 287 282 276 268 263
Height
1514 1516 1518 1522 1522 1516 1510 1510 1513 1516 1517 1519 1520 1520 1517 1516 1517 1521 1522 1517 1516 1516 1516 1516 1518 1520 1522 1524 1525 1527 1529 1530 1531 1533 1534 1535 1536 1537 1538 1538 1539 1540 1540 1541 1541 1542 1542 1542 1543
1514 1517 1521 1522 1515 1510 1507 1510 1513 1515 1518 1520 1520 1520 1519 1518 1520 1521 1519 1517 1516 1516 1516 1517 1518 1520 1522 1524 1525 1527 1528 1530 1531 1532 1534 1535 1536 1537 1538 1538 1539 1540 1541 1541 1542 1543 1543 1543 1544
1514 1517 1521 1517 1512 1504 1505 1512 1514 1518 1520 1520 1520 1520 1520 1520 1520 1520 1518 1516 1516 1516 1516 1517 1519 1520 1522 1524 1525 1527 1528 1529 1531 1532 1533 1534 1535 1536 1537 1538 1539 1540 1541 1542 1542 1543 1544 1544 1545
1516 1520 1520 1515 1509 1509 1511 1515 1518 1518 1519 1520 1520 1519 1520 1521 1520 1518 1517 1516 1516 1516 1517 1518 1519 1520 1522 1523 1525 1526 1527 1529 1530 1531 1533 1534 1535 1536 1537 1538 1539 1540 1541 1542 1543 1543 1544 1545 1546
1516 1517 1515 1512 1510 1513 1516 1518 1519 1518 1518 1520 1520 1518 1519 1520 1518 1517 1517 1516 1516 1516 1517 1518 1518 1520 1521 1522 1524 1525 1526 1528 1529 1530 1532 1533 1534 1535 1536 1537 1538 1539 1540 1541 1543 1544 1545 1545 1546
1516 1514 1510 1506 1509 1515 1517 1520 1520 1518 1518 1520 1520 1519 1519 1519 1517 1517 1516 1516 1515 1516 1516 1517 1517 1519 1520 1521 1523 1524 1525 1526 1528 1529 1530 1532 1533 1534 1535 1536 1537 1539 1540 1541 1542 1543 1545 1545 1546
1515 1511 1506 1506 1510 1514 1518 1520 1519 1518 1518 1520 1520 1519 1518 1519 1517 1516 1515 1515 1515 1515 1515 1516 1517 1517 1518 1519 1521 1522 1523 1525 1526 1528 1529 1530 1532 1533 1534 1535 1536 1538 1539 1540 1541 1543 1544 1545 1546
1514 1513 1510 1510 1511 1513 1519 1520 1520 1520 1519 1521 1521 1518 1517 1518 1516 1515 1514 1514 1514 1514 1514 1514 1515 1516 1516 1517 1518 1520 1521 1523 1524 1526 1527 1529 1530 1531 1533 1534 1535 1536 1538 1539 1541 1542 1544 1545 1546
1514 1514 1508 1511 1513 1515 1519 1520 1521 1521 1520 1520 1519 1519 1518 1516 1515 1514 1513 1513 1512 1512 1512 1513 1513 1514 1514 1515 1516 1517 1519 1520 1522 1523 1525 1526 1528 1529 1530 1532 1533 1535 1536 1538 1539 1541 1543 1544 1545
1515 1510 1511 1516 1517 1518 1520 1520 1521 1520 1518 1517 1517 1517 1516 1515 1513 1512 1511 1510 1510 1510 1510 1510 1511 1511 1512 1512 1513 1514 1516 1517 1519 1520 1522 1523 1525 1526 1528 1529 1531 1533 1535 1536 1538 1539 1541 1543 1544
1514 1513 1516 1519 1520 1521 1520 1521 1521 1520 1516 1516 1516 1515 1514 1512 1511 1510 1509 1508 1507 1507 1507 1507 1508 1508 1509 1509 1510 1511 1512 1514 1515 1517 1518 1520 1522 1523 1524 1526 1528 1530 1532 1534 1535 1537 1539 1540 1542
1515 1517 1518 1519 1521 1521 1521 1520 1520 1519 1517 1516 1515 1513 1511 1510 1508 1507 1506 1505 1504 1504 1504 1504 1504 1505 1505 1506 1507 1508 1509 1510 1511 1513 1514 1516 1518 1519 1521 1522 1524 1526 1528 1530 1532 1534 1536 1538 1540
1515 1517 1519 1520 1521 1521 1520 1520 1519 1516 1516 1514 1512 1510 1509 1507 1505 1504 1502 1501 1500 1500 1500 1500 1500 1501 1502 1502 1503 1504 1505 1506 1508 1509 1510 1512 1513 1515 1517 1519 1520 1523 1525 1526 1528 1531 1533 1535 1537
1516 1517 1518 1519 1519 1519 1519 1517 1517 1514 1513 1512 1510 1507 1506 1504 1502 1500 1499 1497 1497 1496 1496 1496 1496 1497 1497 1498 1499 1500 1501 1502 1503 1505 1506 1508 1509 1511 1513 1514 1516 1518 1520 1523 1524 1527 1529 1531 1533
1517 1517 1517 1518 1518 1518 1519 1514 1513 1513 1512 1509 1507 1505 1503 1501 1499 1497 1495 1494 1493 1492 1491 1491 1492 1492 1493 1493 1494 1495 1496 1497 1498 1500 1501 1503 1505 1506 1508 1510 1511 1514 1516 1518 1521 1523 1525 1527 1529
1516 1513 1511 1516 1517 1518 1519 1509 1511 1511 1510 1507 1505 1502 1500 1498 1496 1494 1491 1490 1488 1487 1487 1487 1487 1487 1487 1488 1489 1490 1491 1493 1494 1495 1497 1498 1500 1502 1503 1505 1507 1509 1511 1513 1516 1518 1520 1522 1525
1511 1509 1510 1514 1517 1517 1516 1510 1510 1510 1508 1505 1503 1501 1498 1496 1493 1491 1488 1486 1484 1483 1482 1482 1482 1482 1483 1483 1484 1485 1486 1487 1489 1490 1492 1493 1495 1496 1498 1500 1502 1504 1506 1508 1510 1513 1515 1518 1520
1509 1510 1512 1512 1515 1515 1513 1509 1508 1508 1506 1504 1502 1499 1497 1494 1491 1488 1485 1482 1481 1479 1478 1477 1477 1477 1478 1478 1479 1480 1481 1482 1483 1485 1486 1488 1489 1491 1493 1494 1496 1498 1500 1503 1505 1508 1510 1513 1515
1513 1513 1512 1513 1515 1515 1510 1507 1506 1505 1504 1503 1501 1498 1495 1492 1490 1486 1483 1480 1477 1475 1474 1473 1472 1472 1473 1473 1474 1475 1476 1477 1478 1480 1481 1483 1484 1486 1487 1489 1491 1493 1494 1497 1499 1502 1505 1507 1510
1515 1514 1512 1513 1514 1513 1508 1505 1504 1504 1504 1503 1500 1497 1494 1491 1487 1484 1480 1477 1474 1472 1470 1469 1468 1468 1468 1468 1469 1470 1472 1472 1474 1475 1476 1478 1479 1481 1482 1484 1485 1487 1489 1491 1493 1496 1498 1500 1503
1514 1513 1512 1513 1512 1511 1508 1500 1501 1502 1503 1502 1500 1497 1494 1491 1487 1483 1479 1475 1472 1469 1467 1465 1464 1464 1464 1464 1465 1466 1467 1468 1469 1470 1471 1473 1474 1476 1477 1478 1480 1481 1483 1484 1486 1489 1492 1493 1496
1512 1514 1515 1515 1511 1506 1508 1499 1496 1499 1499 1500 1499 1496 1493 1490 1486 1482 1478 1474 1471 1468 1465 1463 1462 1461 1460 1460 1461 1462 1463 1464 1465 1466 1467 1468 1469 1470 1471 1473 1474 1475 1477 1478 1480 1483 1485 1487 1489
1514 1516 1515 1514 1512 1509 1506 1504 1495 1497 1497 1498 1498 1496 1493 1490 1486 1482 1478 1474 1470 1467 1464 1462 1460 1459 1458 1458 1458 1459 1460 1461 1462 1463 1463 1464 1465 1465 1466 1467 1468 1470 1471 1472 1474 1476 1478 1480 1482
1516 1516 1514 1513 1510 1507 1504 1503 1496 1497 1499 1499 1498 1496 1493 1490 1486 1482 1478 1474 1470 1466 1463 1461 1459 1457 1457 1456 1456 1457 1457 1458 1459 1459 1460 1460 1461 1461 1461 1462 1463 1464 1465 1466 1468 1470 1472 1473 1475
1515 1512 1507 1504 1502 1497 1503 1503 1498 1498 1500 1500 1499 1497 1494 1490 1486 1482 1478 1474 1470 1467 1464 1461 1459 1457 1455 1455 1454 1454 1455 1455 1456 1456 1457 1457 1456 1456 1457 1458 1458 1458 1459 1461 1462 1463 1465 1466 1468
1513 1512 1507 1500 1494 1493 1501 1498 1495 1499 1500 1500 1499 1497 1494 1490 1487 1483 1479 1475 1471 1468 1464 1461 1459 1457 1455 1454 1453 1452 1452 1453 1453 1453 1453 1453 1453 1453 1453 1453 1453 1453 1454 1455 1456 1457 1458 1459 1460
1512 1511 1512 1509 1505 1500 1492 1494 1495 1498 1499 1499 1498 1496 1493 1490 1487 1484 1480 1476 1472 1469 1466 1462 1460 1457 1455 1453 1452 1451 1451 1450 1450 1450 1450 1450 1450 1449 1449 1448 1448 1448 1449 1449 1449 1450 1451 1452 1453
1514 1512 1512 1508 1501 1491 1488 1489 1489 1494 1495 1496 1496 1495 1493 1491 1487 1484 1481 1477 1474 1470 1467 1464 1461 1458 1456 1454 1453 1451 1450 1449 1449 1448 1447 1447 1446 1445 1444 1444 1444 1444 1444 1444 1444 1444 1445 1445 1446
1513 1513 1510 1507 1506 1496 1487 1486 1489 1491 1493 1494 1494 1494 1492 1490 1488 1485 1481 1478 1475 1472 1468 1465 1462 1460 1457 1455 1453 1451 1450 1448 1447 1446 1445 1444 1443 1442 1441 1440 1440 1439 1438 1438 1438 1438 1438 1438 1439
1509 1508 1507 1504 1504 1502 1494 1491 1492 1493 1493 1494 1494 1493 1492 1490 1488 1485 1482 1479 1476 1473 1470 1467 1464 1461 1458 1456 1454 1452 1450 1448 1446 1444 1443 1441 1440 1439 1438 1437 1436 1435 1434 1433 1433 1432 1432 1432 1432